User: anonymous   Login
Location: Naloco
(16.5478°S, 37.1017°E)
Time: 18:59:34
(UTC+00:00)
Language:

GPS 2-14 Rocket1 - Orbit

View from above orbital plane
View from above orbital plane
View from above satellite
View from above satellite

Ground track
Ground track

The orbit data is extracted from the following two-line orbital elements,

1 22015U 92039B   20296.15952299  .00001718  00000-0  52340-4 0  9999
2 22015  20.7142 227.5743 0047101 219.0362 140.6672 15.19123921576787
Epoch (UTC): 22 October 2020 03:49:42
Eccentricity: 0.0047101
inclination: 20.7142°
perigee height: 476 km
apogee height: 541 km
right ascension of ascending node: 227.5743°
argument of perigee: 219.0362°
revolutions per day: 15.19123921
mean anomaly at epoch: 140.6672°
orbit number at epoch: 57678

The dashed part of the orbit path shows where the satellite is in the earth's shadow,  

DLR